Location: Brno
(49.2000°N, 16.6330°E)
Time: 05:07:27
(UTC+02:00)

Courier 1B Rocket - All Passes

Search period start: 06 August 2021 00:00
Search period end: 16 August 2021 00:00
Orbit: 920 x 1202 km, 28.2° (Epoch: 05 August)

Date Brightness Start Highest point End Pass type
(mag) Time Alt. Az. Time Alt. Az. Time Alt. Az.
06 Aug - 02:04:00 10° SSW 02:06:15 12° S 02:08:28 10° SSE visible
07 Aug - 01:03:26 10° SSW 01:05:36 11° S 01:07:45 10° SSE night (unlit)
07 Aug - 02:56:00 10° SSW 02:57:37 11° S 02:59:14 10° S visible
08 Aug - 00:03:32 10° S 00:04:55 11° S 00:06:18 10° SSE night (unlit)
08 Aug - 01:54:23 10° SSW 01:56:59 12° S 01:59:31 10° SSE night (unlit)
09 Aug - 00:53:20 10° SSW 00:56:18 13° S 00:59:12 10° SSE night (unlit)
09 Aug - 23:52:42 10° SSW 23:55:36 13° S 23:58:26 10° SSE night (unlit)
10 Aug - 01:45:15 10° SSW 01:47:41 12° S 01:50:04 10° S night (unlit)
10 Aug - 22:52:33 10° S 22:54:52 12° SSE 22:57:09 10° SSE visible
11 Aug - 00:43:47 10° SSW 00:47:00 13° S 00:50:07 10° SSE night (unlit)
11 Aug - 23:42:47 10° SSW 23:46:15 14° S 23:49:41 10° SSE visible
12 Aug - 01:36:48 10° SSW 01:38:20 11° SSW 01:39:51 10° S night (unlit)
12 Aug - 22:42:07 10° SSW 22:45:31 13° S 22:48:51 10° SSE visible
13 Aug - 00:34:38 10° SSW 00:37:39 13° S 00:40:37 10° SSE night (unlit)
13 Aug - 21:41:58 10° S 21:44:45 12° SSE 21:47:32 10° SSE visible
13 Aug - 23:33:17 10° SSW 23:36:55 14° S 23:40:30 10° SSE visible
14 Aug - 20:43:02 10° S 20:44:00 10° SSE 20:44:58 10° SSE visible
14 Aug - 22:32:20 10° SSW 22:36:09 14° S 22:39:56 10° SSE visible
15 Aug - 00:26:02 10° SSW 00:28:17 11° SSW 00:30:30 10° S visible
15 Aug - 21:31:44 10° SSW 21:35:22 14° S 21:38:59 10° SE visible
15 Aug - 23:24:10 10° SW 23:27:33 13° S 23:30:54 10° SSE visible
